Station Historical Data
Daily Summary for January 14, 2018 Units:  Metric    English   Both
« Previous Day
Next Day »
Daily Weekly Monthly Yearly Custom
  High: Low: Average:
Temperature: -3.8 °C -9.2 °C -6.4 °C
Dew Point: -12.4 °C -15 °C -13.9 °C
Humidity: 65 % 44 % 56 %
Wind Speed: 12.9 km/h 0 km/h 3.1 km/h
Wind Gust: 20.9 km/h - -
Wind:- - WSW
Pressure: 1040.9 hPa 1033.7 hPa -
Precipitation: 0 mm    
Historical Graphs
 
 
Tabular Data for January 14, 2018
Time Temperature Dew Point Pressure Wind Wind Speed Wind Gust Humidity Rainfall Rate (Hourly)
00:00 -5.9 °C -12.4 °C 1033.7 hPa West 6.4 km/h 11.3 km/h 60 % 0 mm
00:08 -5.9 °C -12.4 °C 1033.7 hPa Calm   11.3 km/h 60 % 0 mm
00:38 -6.2 °C -12.9 °C 1034.1 hPa North 6.4 km/h 14.5 km/h 59 % 0 mm
00:44 -6.3 °C -12.8 °C 1034.1 hPa WSW 1.6 km/h 14.5 km/h 60 % 0 mm
00:51 -6.3 °C -13 °C 1034.1 hPa North 6.4 km/h 16.1 km/h 59 % 0 mm
00:59 -6.4 °C -13.1 °C 1034.1 hPa WNW 9.7 km/h 16.1 km/h 59 % 0 mm
01:05 -6.5 °C -12.9 °C 1034.1 hPa Calm   16.1 km/h 60 % 0 mm
01:13 -6.6 °C -13 °C 1034.4 hPa Calm   16.1 km/h 60 % 0 mm
01:21 -6.7 °C -13.3 °C 1034.4 hPa NNE 3.2 km/h 17.7 km/h 59 % 0 mm
01:28 -6.8 °C -13.2 °C 1034.8 hPa West 4.8 km/h 17.7 km/h 60 % 0 mm
01:37 -6.9 °C -13.3 °C 1034.8 hPa NNE 4.8 km/h 17.7 km/h 60 % 0 mm
02:15 -7.2 °C -13.6 °C 1035.4 hPa WNW 4.8 km/h 14.5 km/h 60 % 0 mm
02:29 -7.3 °C -13.8 °C 1035.4 hPa WNW 1.6 km/h 14.5 km/h 60 % 0 mm
02:36 -7.4 °C -13.8 °C 1035.4 hPa NW 6.4 km/h 14.5 km/h 60 % 0 mm
02:44 -7.4 °C -13.9 °C 1035.4 hPa West 6.4 km/h 14.5 km/h 60 % 0 mm
02:57 -7.6 °C -13.9 °C 1035.8 hPa WNW 8 km/h 14.5 km/h 60 % 0 mm
03:11 -7.7 °C -14.1 °C 1035.8 hPa North 3.2 km/h 16.1 km/h 60 % 0 mm
03:19 -7.7 °C -14.1 °C 1035.8 hPa WNW 4.8 km/h 16.1 km/h 60 % 0 mm
03:24 -7.8 °C -14 °C 1035.8 hPa NNE 6.4 km/h 14.5 km/h 61 % 0 mm
04:01 -8 °C -14.2 °C 1036.1 hPa NW 4.8 km/h 16.1 km/h 61 % 0 mm
04:23 -8.2 °C -14.2 °C 1036.1 hPa NW 8 km/h 20.9 km/h 62 % 0 mm
04:31 -8.3 °C -14.2 °C 1036.1 hPa WNW 9.7 km/h 14.5 km/h 62 % 0 mm
04:56 -8.4 °C -14.2 °C 1036.5 hPa NW 6.4 km/h 11.3 km/h 63 % 0 mm
05:04 -8.4 °C -14.2 °C 1036.5 hPa NW 8 km/h 14.5 km/h 63 % 0 mm
05:10 -8.4 °C -14.2 °C 1036.5 hPa North 1.6 km/h 14.5 km/h 63 % 0 mm
05:40 -8.6 °C -14.4 °C 1037.1 hPa West 9.7 km/h 14.5 km/h 63 % 0 mm
05:50 -8.7 °C -14.4 °C 1037.1 hPa WNW 6.4 km/h 14.5 km/h 63 % 0 mm
06:02 -8.8 °C -14.3 °C 1037.5 hPa NW 4.8 km/h 12.9 km/h 64 % 0 mm
06:10 -8.8 °C -14.6 °C 1037.8 hPa NW 4.8 km/h 12.9 km/h 63 % 0 mm
06:28 -8.9 °C -14.5 °C 1037.8 hPa North 3.2 km/h 12.9 km/h 64 % 0 mm
06:45 -9 °C -14.6 °C 1038.1 hPa North 8 km/h 14.5 km/h 64 % 0 mm
06:59 -9.1 °C -14.6 °C 1038.1 hPa North 4.8 km/h 12.9 km/h 64 % 0 mm
07:05 -9.1 °C -14.6 °C 1038.1 hPa NW 3.2 km/h 12.9 km/h 64 % 0 mm
07:14 -9.2 °C -14.7 °C 1038.1 hPa North 8 km/h 12.9 km/h 64 % 0 mm
07:27 -9.2 °C -14.8 °C 1038.5 hPa WNW 4.8 km/h 12.9 km/h 64 % 0 mm
07:35 -9.2 °C -14.6 °C 1038.5 hPa NW 4.8 km/h 12.9 km/h 65 % 0 mm
07:52 -9.2 °C -14.8 °C 1038.8 hPa WNW 8 km/h 16.1 km/h 64 % 0 mm
08:00 -9.2 °C -14.7 °C 1038.8 hPa ENE 1.6 km/h 16.1 km/h 64 % 0 mm
08:24 -9.1 °C -14.8 °C 1039.2 hPa NW 1.6 km/h 16.1 km/h 63 % 0 mm
08:42 -8.8 °C -14.8 °C 1039.5 hPa NW 6.4 km/h 19.3 km/h 62 % 0 mm
08:47 -8.7 °C -14.7 °C 1039.5 hPa NW 1.6 km/h 14.5 km/h 62 % 0 mm
08:59 -8.6 °C -14.7 °C 1039.8 hPa NW 1.6 km/h 14.5 km/h 61 % 0 mm
09:08 -8.4 °C -14.8 °C 1040.2 hPa West 1.6 km/h 12.9 km/h 60 % 0 mm
09:14 -8.4 °C -14.8 °C 1040.2 hPa WNW 8 km/h 11.3 km/h 60 % 0 mm
09:20 -8.3 °C -14.8 °C 1040.5 hPa NW 6.4 km/h 14.5 km/h 59 % 0 mm
09:31 -8.1 °C -14.9 °C 1040.5 hPa NW 12.9 km/h 14.5 km/h 58 % 0 mm
09:54 -7.8 °C -14.9 °C 1040.5 hPa NW 6.4 km/h 16.1 km/h 57 % 0 mm
10:02 -7.7 °C -15 °C 1040.9 hPa NW 8 km/h 16.1 km/h 56 % 0 mm
10:09 -7.6 °C -14.9 °C 1040.5 hPa NW 9.7 km/h 16.1 km/h 56 % 0 mm
10:14 -7.5 °C -14.8 °C 1040.5 hPa West 11.3 km/h 16.1 km/h 56 % 0 mm
10:20 -7.4 °C -14.9 °C 1040.5 hPa NW 3.2 km/h 14.5 km/h 55 % 0 mm
10:32 -7.2 °C -14.7 °C 1040.5 hPa WNW 6.4 km/h 12.9 km/h 55 % 0 mm
10:38 -7.1 °C -14.6 °C 1040.5 hPa NW 4.8 km/h 12.9 km/h 55 % 0 mm
10:45 -6.9 °C -14.5 °C 1040.5 hPa NW 1.6 km/h 12.9 km/h 55 % 0 mm
10:55 -6.8 °C -14.4 °C 1040.2 hPa SW 9.7 km/h 11.3 km/h 55 % 0 mm
11:07 -6.7 °C -14.4 °C 1040.2 hPa WNW 1.6 km/h 12.9 km/h 54 % 0 mm
11:14 -6.6 °C -14.2 °C 1039.8 hPa WNW 3.2 km/h 12.9 km/h 55 % 0 mm
11:20 -6.4 °C -13.9 °C 1039.8 hPa NW 1.6 km/h 12.9 km/h 55 % 0 mm
11:27 -6.2 °C -14.3 °C 1039.5 hPa NNE 1.6 km/h 11.3 km/h 53 % 0 mm
11:40 -6.1 °C -14.1 °C 1039.5 hPa NNE 4.8 km/h 11.3 km/h 53 % 0 mm
12:02 -5.6 °C -14.1 °C 1039.2 hPa Calm   12.9 km/h 51 % 0 mm
12:09 -5.6 °C -14.1 °C 1039.2 hPa WNW 1.6 km/h 12.9 km/h 51 % 0 mm
12:17 -5.6 °C -13.9 °C 1039.2 hPa NE 1.6 km/h 12.9 km/h 52 % 0 mm
12:23 -5.4 °C -13.7 °C 1039.2 hPa NW 3.2 km/h 12.9 km/h 52 % 0 mm
12:31 -5.3 °C -13.9 °C 1038.8 hPa West 1.6 km/h 9.7 km/h 51 % 0 mm
12:43 -5.2 °C -13.8 °C 1038.8 hPa NNE 3.2 km/h 11.3 km/h 51 % 0 mm
12:50 -5.1 °C -14.2 °C 1038.8 hPa North 4.8 km/h 11.3 km/h 49 % 0 mm
12:56 -4.9 °C -14 °C 1038.8 hPa ESE 1.6 km/h 11.3 km/h 49 % 0 mm
13:14 -4.7 °C -13.8 °C 1038.5 hPa NW 1.6 km/h 11.3 km/h 49 % 0 mm
13:20 -4.6 °C -13.9 °C 1038.5 hPa West 1.6 km/h 12.9 km/h 48 % 0 mm
13:30 -4.6 °C -14.2 °C 1038.5 hPa NW 11.3 km/h 12.9 km/h 47 % 0 mm
13:37 -4.5 °C -14.2 °C 1038.5 hPa Calm   11.3 km/h 47 % 0 mm
13:51 -4.3 °C -14.3 °C 1038.1 hPa East 1.6 km/h 19.3 km/h 46 % 0 mm
14:02 -4.1 °C -14.1 °C 1038.1 hPa Calm   19.3 km/h 46 % 0 mm
14:11 -4.1 °C -14.4 °C 1037.8 hPa Calm   9.7 km/h 45 % 0 mm
14:20 -4.2 °C -14.2 °C 1037.8 hPa WNW 4.8 km/h 11.3 km/h 46 % 0 mm
14:28 -4.1 °C -14.1 °C 1038.1 hPa WNW 1.6 km/h 11.3 km/h 46 % 0 mm
14:38 -4.1 °C -14.1 °C 1038.1 hPa Calm   11.3 km/h 46 % 0 mm
14:44 -4 °C -14.3 °C 1038.1 hPa ENE 4.8 km/h 11.3 km/h 45 % 0 mm
14:51 -3.9 °C -14.2 °C 1038.1 hPa WNW 4.8 km/h 11.3 km/h 45 % 0 mm
15:03 -3.8 °C -14.1 °C 1038.1 hPa Calm   11.3 km/h 45 % 0 mm
15:09 -3.8 °C -14.1 °C 1037.8 hPa WNW 8 km/h 11.3 km/h 45 % 0 mm
15:20 -3.8 °C -14.3 °C 1038.1 hPa Calm   11.3 km/h 44 % 0 mm
15:26 -3.8 °C -14.3 °C 1038.1 hPa NE 1.6 km/h 9.7 km/h 44 % 0 mm
15:32 -3.8 °C -14.3 °C 1038.1 hPa NW 3.2 km/h 9.7 km/h 44 % 0 mm
15:40 -3.8 °C -14.1 °C 1038.1 hPa NW 3.2 km/h 8 km/h 45 % 0 mm
16:00 -3.8 °C -14.3 °C 1038.5 hPa East 3.2 km/h 8 km/h 44 % 0 mm
16:11 -3.8 °C -14.4 °C 1038.5 hPa Calm   8 km/h 44 % 0 mm
16:18 -3.9 °C -14.2 °C 1038.5 hPa Calm   8 km/h 45 % 0 mm
16:24 -3.9 °C -14.2 °C 1038.5 hPa Calm   8 km/h 45 % 0 mm
16:33 -4.1 °C -14.6 °C 1038.5 hPa Calm   11.3 km/h 44 % 0 mm
16:39 -4.1 °C -14.4 °C 1038.5 hPa WNW 3.2 km/h 11.3 km/h 45 % 0 mm
16:46 -4.2 °C -14.7 °C 1038.5 hPa Calm   8 km/h 44 % 0 mm
16:51 -4.2 °C -14.4 °C 1038.5 hPa Calm   8 km/h 45 % 0 mm
16:57 -4.3 °C -14.3 °C 1038.5 hPa NW 3.2 km/h 6.4 km/h 46 % 0 mm
17:04 -4.4 °C -14.3 °C 1038.1 hPa Calm   6.4 km/h 46 % 0 mm
17:20 -4.8 °C -14.4 °C 1038.1 hPa Calm   6.4 km/h 47 % 0 mm
17:35 -4.9 °C -14.3 °C 1038.1 hPa Calm   8 km/h 48 % 0 mm
17:44 -4.9 °C -14.3 °C 1038.1 hPa North 3.2 km/h 8 km/h 48 % 0 mm
17:51 -5.1 °C -14.2 °C 1038.1 hPa Calm   6.4 km/h 49 % 0 mm
18:06 -5.3 °C -13.9 °C 1038.1 hPa NW 3.2 km/h 9.7 km/h 51 % 0 mm
18:12 -5.3 °C -13.9 °C 1038.1 hPa WNW 3.2 km/h 9.7 km/h 51 % 0 mm
18:25 -5.5 °C -13.8 °C 1038.5 hPa Calm   8 km/h 52 % 0 mm
18:45 -5.8 °C -13.8 °C 1038.8 hPa Calm   4.8 km/h 53 % 0 mm
18:51 -5.8 °C -13.7 °C 1038.8 hPa Calm   6.4 km/h 54 % 0 mm
18:57 -5.8 °C -13.7 °C 1038.8 hPa Calm   6.4 km/h 54 % 0 mm
19:18 -6.1 °C -13.4 °C 1039.2 hPa Calm   8 km/h 56 % 0 mm
19:23 -6.2 °C -13.5 °C 1039.5 hPa Calm   8 km/h 56 % 0 mm
19:55 -6.5 °C -13.4 °C 1039.5 hPa Calm   4.8 km/h 58 % 0 mm
20:03 -6.6 °C -13.4 °C 1039.5 hPa Calm   4.8 km/h 58 % 0 mm
20:09 -6.7 °C -13.6 °C 1039.5 hPa Calm   4.8 km/h 58 % 0 mm
20:17 -6.8 °C -13.7 °C 1039.5 hPa Calm   3.2 km/h 58 % 0 mm
20:29 -6.9 °C -13.6 °C 1039.5 hPa Calm   3.2 km/h 59 % 0 mm
20:42 -7 °C -13.4 °C 1039.2 hPa Calm   3.2 km/h 60 % 0 mm
20:52 -7.1 °C -13.6 °C 1038.8 hPa Calm   3.2 km/h 60 % 0 mm
20:59 -7.1 °C -13.3 °C 1038.8 hPa Calm   3.2 km/h 61 % 0 mm
21:16 -7.1 °C -13.2 °C 1038.8 hPa Calm   3.2 km/h 62 % 0 mm
21:24 -7.2 °C -13.2 °C 1038.8 hPa Calm   4.8 km/h 62 % 0 mm
21:31 -7.1 °C -12.9 °C 1038.8 hPa Calm   4.8 km/h 63 % 0 mm
21:38 -7 °C -13.1 °C 1039.2 hPa Calm   4.8 km/h 62 % 0 mm
21:48 -6.8 °C -12.9 °C 1039.2 hPa Calm   4.8 km/h 62 % 0 mm
22:06 -6.8 °C -13 °C 1039.5 hPa Calm   3.2 km/h 61 % 0 mm
22:13 -6.8 °C -13 °C 1039.8 hPa Calm   3.2 km/h 61 % 0 mm
22:20 -6.8 °C -13 °C 1039.5 hPa Calm   1.6 km/h 61 % 0 mm
22:32 -6.9 °C -12.8 °C 1039.2 hPa Calm   3.2 km/h 63 % 0 mm
22:46 -7 °C -12.8 °C 1039.2 hPa Calm   3.2 km/h 63 % 0 mm
22:52 -6.9 °C -12.8 °C 1039.2 hPa Calm   4.8 km/h 63 % 0 mm
22:57 -6.9 °C -12.8 °C 1039.2 hPa Calm   4.8 km/h 63 % 0 mm
23:25 -7.2 °C -12.8 °C 1039.2 hPa Calm   1.6 km/h 64 % 0 mm
23:33 -7.3 °C -12.9 °C 1039.2 hPa Calm   1.6 km/h 64 % 0 mm
23:39 -7.4 °C -12.9 °C 1039.2 hPa Calm   1.6 km/h 65 % 0 mm
MarylandWx.com
Compliments of Weather Underground - 5.75 mb